BAW33 EGMC-EGNV

Flight info

Callsign BAW33
Flight time 0h 41m
Altitude 28000
Route EVNAS DCT LAM L10 BPK UN601 LESTA UY250 KEFTE Y250 GASKO
Aircraft A320/M-SDE3FGHIRWY/LB1

Departure

Time 2026-04-26 18:42
Airport London Southend Airport (EGMC)

Arrival

Time 2026-04-26 19:23
Airport Teesside International Airport (EGNV)
Time Latitude Longitude Altitude Speed Heading
2026-04-26 18:07 51.56823 0.70141 50 ft 0 kts 144°
2026-04-26 18:31 51.56824 0.70140 49 ft 2 kts 144°
2026-04-26 18:32 51.56838 0.70123 49 ft 3 kts 144°
2026-04-26 18:32 51.56854 0.70115 43 ft 2 kts 213°
2026-04-26 18:32 51.56861 0.70123 46 ft 0 kts 231°
2026-04-26 18:35 51.56857 0.70114 43 ft 2 kts 239°
2026-04-26 18:36 51.56857 0.70087 48 ft 3 kts 282°
2026-04-26 18:36 51.56867 0.70040 50 ft 6 kts 291°
2026-04-26 18:36 51.56882 0.69971 50 ft 7 kts 282°
2026-04-26 18:36 51.56890 0.69879 51 ft 9 kts 278°
2026-04-26 18:37 51.56900 0.69771 51 ft 11 kts 278°
2026-04-26 18:37 51.56912 0.69646 50 ft 12 kts 278°
2026-04-26 18:37 51.56915 0.69505 53 ft 13 kts 261°
2026-04-26 18:37 51.56901 0.69352 54 ft 14 kts 261°
2026-04-26 18:38 51.56876 0.69242 48 ft 7 kts 236°
2026-04-26 18:38 51.56845 0.69170 48 ft 8 kts 236°
2026-04-26 18:38 51.56855 0.69091 51 ft 0 kts 318°
2026-04-26 18:39 51.56856 0.69090 57 ft 0 kts 318°
2026-04-26 18:39 51.56861 0.69083 57 ft 2 kts 318°
2026-04-26 18:39 51.56890 0.69031 52 ft 11 kts 293°
2026-04-26 18:39 51.56837 0.68880 55 ft 21 kts 233°
2026-04-26 18:40 51.56727 0.68636 53 ft 32 kts 234°
2026-04-26 18:40 51.56592 0.68336 56 ft 28 kts 234°
2026-04-26 18:40 51.56514 0.68227 58 ft 10 kts 237°
2026-04-26 18:40 51.56561 0.68260 54 ft 13 kts 60°
2026-04-26 18:41 51.56603 0.68351 56 ft 1 kts 53°
2026-04-26 18:41 51.56616 0.68380 53 ft 6 kts 53°
2026-04-26 18:41 51.56702 0.68573 59 ft 58 kts 55°
2026-04-26 18:41 51.57106 0.69479 50 ft 137 kts 54°
2026-04-26 18:42 51.57744 0.70917 484 ft 164 kts 56°
2026-04-26 18:42 51.58653 0.71988 1500 ft 168 kts 18°
2026-04-26 18:42 51.59832 0.71922 2446 ft 178 kts 340°
2026-04-26 18:42 51.60830 0.70664 3260 ft 194 kts 305°
2026-04-26 18:43 51.61334 0.68498 3862 ft 222 kts 283°
2026-04-26 18:43 51.61664 0.65971 4587 ft 235 kts 283°
2026-04-26 18:43 51.62042 0.63303 5070 ft 258 kts 284°
2026-04-26 18:43 51.62463 0.60421 5086 ft 268 kts 281°
2026-04-26 18:44 51.62720 0.57408 5371 ft 277 kts 276°
2026-04-26 18:44 51.62856 0.54334 6391 ft 275 kts 274°
2026-04-26 18:44 51.62963 0.51254 7325 ft 276 kts 273°
2026-04-26 18:44 51.63074 0.48168 8227 ft 277 kts 273°
2026-04-26 18:45 51.63197 0.45070 9174 ft 278 kts 274°
2026-04-26 18:45 51.63333 0.41954 10060 ft 279 kts 274°
2026-04-26 18:45 51.63477 0.38812 10719 ft 289 kts 274°
2026-04-26 18:45 51.63634 0.35458 10945 ft 313 kts 274°
2026-04-26 18:46 51.63805 0.31836 11104 ft 336 kts 274°
2026-04-26 18:46 51.63987 0.27965 11236 ft 359 kts 274°
2026-04-26 18:46 51.64185 0.23837 11430 ft 378 kts 274°
2026-04-26 18:46 51.64431 0.19533 11947 ft 386 kts 278°
2026-04-26 18:47 51.65069 0.15316 12586 ft 390 kts 288°
2026-04-26 18:47 51.66183 0.11306 13221 ft 396 kts 298°
2026-04-26 18:47 51.67673 0.07537 13845 ft 401 kts 302°
2026-04-26 18:47 51.69207 0.03752 14467 ft 405 kts 301°
2026-04-26 18:48 51.70749 -0.00078 15049 ft 407 kts 301°
2026-04-26 18:48 51.72286 -0.03915 15679 ft 409 kts 301°
2026-04-26 18:48 51.73907 -0.07678 16374 ft 408 kts 307°
2026-04-26 18:48 51.75865 -0.10979 17146 ft 408 kts 317°
2026-04-26 18:49 51.78154 -0.13716 17796 ft 414 kts 327°
2026-04-26 18:49 51.80668 -0.16095 18449 ft 425 kts 328°
2026-04-26 18:49 51.83250 -0.18538 19072 ft 434 kts 328°
2026-04-26 18:49 51.85880 -0.21037 19758 ft 442 kts 327°
2026-04-26 18:50 51.88555 -0.23589 20433 ft 450 kts 327°
2026-04-26 18:50 51.91277 -0.26192 21141 ft 458 kts 327°
2026-04-26 18:50 51.94042 -0.28838 21854 ft 465 kts 327°
2026-04-26 18:50 51.96848 -0.31530 22599 ft 472 kts 327°
2026-04-26 18:51 51.99692 -0.34265 23377 ft 478 kts 327°
2026-04-26 18:51 52.02569 -0.37037 24100 ft 484 kts 327°
2026-04-26 18:51 52.05482 -0.39845 24767 ft 488 kts 327°
2026-04-26 18:51 52.08400 -0.42659 25519 ft 488 kts 327°
2026-04-26 18:52 52.11313 -0.45471 26227 ft 484 kts 327°
2026-04-26 18:52 52.13224 -0.47320 26690 ft 480 kts 326°
2026-04-26 18:52 52.17029 -0.50999 27640 ft 471 kts 326°
2026-04-26 18:52 52.19841 -0.53722 28119 ft 469 kts 326°
2026-04-26 18:53 52.22633 -0.56435 28257 ft 466 kts 326°
2026-04-26 18:53 52.25415 -0.59145 28282 ft 466 kts 326°
2026-04-26 18:53 52.30970 -0.64570 28267 ft 465 kts 326°
2026-04-26 18:54 52.36516 -0.70020 28286 ft 465 kts 326°
2026-04-26 18:54 52.42075 -0.75480 28275 ft 465 kts 326°
2026-04-26 18:55 52.46724 -0.80045 28285 ft 468 kts 326°
2026-04-26 18:55 52.52326 -0.85557 28279 ft 470 kts 326°
2026-04-26 18:56 52.57926 -0.91095 28270 ft 471 kts 326°
2026-04-26 18:56 52.63531 -0.96666 28256 ft 471 kts 326°
2026-04-26 18:57 52.68230 -1.01348 28254 ft 471 kts 325°
2026-04-26 18:57 52.75000 -1.07133 28258 ft 477 kts 338°
2026-04-26 18:58 52.81537 -1.09469 28264 ft 482 kts 346°
2026-04-26 18:58 52.88147 -1.11457 28255 ft 483 kts 346°
2026-04-26 18:59 52.94792 -1.13488 28261 ft 480 kts 346°
2026-04-26 18:59 53.01289 -1.15475 28289 ft 472 kts 346°
2026-04-26 19:00 53.07738 -1.17453 28274 ft 472 kts 346°
2026-04-26 19:00 53.14194 -1.19443 28275 ft 472 kts 346°
2026-04-26 19:01 53.20647 -1.21442 28277 ft 472 kts 346°
2026-04-26 19:01 53.27100 -1.23442 28277 ft 472 kts 346°
2026-04-26 19:02 53.33550 -1.25438 28266 ft 472 kts 346°
2026-04-26 19:02 53.38923 -1.27104 28265 ft 472 kts 346°
2026-04-26 19:03 53.46583 -1.28592 28253 ft 476 kts 352°
2026-04-26 19:03 53.53181 -1.29392 28253 ft 476 kts 352°
2026-04-26 19:04 53.59578 -1.31681 28258 ft 467 kts 335°
2026-04-26 19:04 53.65279 -1.36714 28258 ft 462 kts 325°
2026-04-26 19:05 53.73525 -1.45106 27507 ft 461 kts 325°
2026-04-26 19:05 53.76266 -1.47886 26256 ft 456 kts 326°
2026-04-26 19:06 53.78959 -1.50613 25089 ft 447 kts 326°
2026-04-26 19:06 53.81603 -1.53297 23971 ft 441 kts 326°
2026-04-26 19:06 53.84215 -1.55965 22729 ft 437 kts 326°
2026-04-26 19:06 53.86802 -1.58623 21772 ft 433 kts 326°
2026-04-26 19:07 53.89408 -1.61308 20909 ft 430 kts 326°
2026-04-26 19:07 53.91945 -1.63922 20068 ft 426 kts 327°
2026-04-26 19:07 53.94463 -1.66518 19229 ft 421 kts 327°
2026-04-26 19:07 53.96957 -1.69087 18381 ft 417 kts 327°
2026-04-26 19:08 53.99425 -1.71628 17514 ft 412 kts 327°
2026-04-26 19:08 54.01852 -1.74133 16703 ft 405 kts 327°
2026-04-26 19:08 54.04238 -1.76605 15915 ft 399 kts 327°
2026-04-26 19:08 54.06591 -1.79046 15153 ft 393 kts 327°
2026-04-26 19:09 54.08917 -1.81459 14417 ft 388 kts 327°
2026-04-26 19:09 54.11207 -1.83838 13665 ft 384 kts 327°
2026-04-26 19:09 54.13469 -1.86191 12985 ft 380 kts 327°
2026-04-26 19:09 54.15713 -1.88528 12332 ft 376 kts 327°
2026-04-26 19:10 54.17962 -1.90739 11668 ft 365 kts 334°
2026-04-26 19:10 54.20338 -1.91923 11026 ft 351 kts 351°
2026-04-26 19:10 54.22732 -1.91870 10391 ft 340 kts
2026-04-26 19:10 54.24953 -1.90648 9728 ft 333 kts 25°
2026-04-26 19:11 54.26839 -1.88438 9047 ft 327 kts 42°
2026-04-26 19:11 54.28407 -1.85575 8390 ft 332 kts 47°
2026-04-26 19:11 54.29973 -1.82636 7730 ft 337 kts 46°
2026-04-26 19:11 54.31563 -1.79662 7084 ft 340 kts 46°
2026-04-26 19:12 54.33166 -1.76671 6436 ft 343 kts 46°
2026-04-26 19:12 54.34783 -1.73651 5764 ft 345 kts 46°
2026-04-26 19:12 54.36405 -1.70615 5114 ft 346 kts 47°
2026-04-26 19:12 54.38017 -1.67590 4635 ft 341 kts 47°
2026-04-26 19:13 54.39585 -1.64641 4234 ft 325 kts 47°
2026-04-26 19:13 54.41066 -1.61850 3855 ft 306 kts 47°
2026-04-26 19:13 54.42461 -1.59218 3472 ft 291 kts 47°
2026-04-26 19:13 54.43866 -1.56842 3095 ft 278 kts 38°
2026-04-26 19:14 54.45359 -1.54852 3001 ft 269 kts 36°
2026-04-26 19:14 54.46864 -1.52929 3014 ft 270 kts 36°
2026-04-26 19:14 54.48372 -1.51008 3015 ft 270 kts 36°
2026-04-26 19:14 54.49393 -1.49712 3020 ft 270 kts 35°
2026-04-26 19:15 54.51392 -1.47117 3010 ft 269 kts 36°
2026-04-26 19:15 54.52883 -1.45166 3008 ft 269 kts 35°
2026-04-26 19:15 54.54373 -1.43213 3015 ft 269 kts 36°
2026-04-26 19:15 54.55865 -1.41259 3006 ft 268 kts 35°
2026-04-26 19:16 54.57281 -1.39388 3007 ft 244 kts 36°
2026-04-26 19:16 54.58560 -1.37684 3002 ft 221 kts 35°
2026-04-26 19:16 54.59722 -1.36122 3000 ft 207 kts 36°
2026-04-26 19:16 54.60847 -1.34609 3015 ft 204 kts 36°
2026-04-26 19:17 54.61951 -1.33119 2999 ft 200 kts 36°
2026-04-26 19:17 54.63043 -1.31639 2884 ft 198 kts 36°
2026-04-26 19:17 54.64123 -1.30177 2757 ft 196 kts 36°
2026-04-26 19:17 54.65063 -1.28521 2612 ft 193 kts 62°
2026-04-26 19:18 54.65322 -1.26333 2506 ft 184 kts 98°
2026-04-26 19:18 54.64956 -1.24284 2386 ft 176 kts 125°
2026-04-26 19:18 54.64117 -1.22845 2258 ft 168 kts 155°
2026-04-26 19:18 54.63034 -1.22215 2145 ft 164 kts 169°
2026-04-26 19:19 54.62009 -1.21332 2059 ft 167 kts 153°
2026-04-26 19:19 54.60960 -1.20933 1985 ft 148 kts 204°
2026-04-26 19:19 54.60333 -1.22173 2028 ft 144 kts 259°
2026-04-26 19:19 54.60238 -1.23892 2027 ft 144 kts 253°
2026-04-26 19:20 54.59831 -1.25462 2021 ft 143 kts 240°
2026-04-26 19:20 54.59475 -1.26417 2019 ft 143 kts 235°
2026-04-26 19:20 54.58661 -1.28230 2011 ft 143 kts 231°
2026-04-26 19:20 54.58010 -1.29542 1935 ft 144 kts 230°
2026-04-26 19:21 54.57347 -1.30829 1804 ft 143 kts 229°
2026-04-26 19:21 54.56679 -1.32105 1628 ft 144 kts 229°
2026-04-26 19:21 54.56008 -1.33377 1446 ft 144 kts 228°
2026-04-26 19:21 54.55332 -1.34651 1245 ft 144 kts 227°
2026-04-26 19:22 54.54659 -1.35924 953 ft 143 kts 227°
2026-04-26 19:22 54.53986 -1.37211 793 ft 145 kts 227°
2026-04-26 19:22 54.53300 -1.38495 594 ft 147 kts 226°
2026-04-26 19:22 54.52604 -1.39780 404 ft 148 kts 227°
2026-04-26 19:23 54.51912 -1.41086 238 ft 147 kts 227°
2026-04-26 19:23 54.51215 -1.42391 127 ft 136 kts 227°
2026-04-26 19:23 54.50879 -1.43015 125 ft 38 kts 227°
2026-04-26 19:23 54.50733 -1.43287 127 ft 26 kts 227°
2026-04-26 19:24 54.50607 -1.43524 124 ft 28 kts 227°
2026-04-26 19:24 54.50470 -1.43780 123 ft 30 kts 227°
2026-04-26 19:24 54.50298 -1.44165 126 ft 11 kts 333°
2026-04-26 19:25 54.50334 -1.44052 126 ft 13 kts 66°
2026-04-26 19:25 54.50351 -1.44006 122 ft 14 kts 55°
2026-04-26 19:25 54.50486 -1.43757 121 ft 20 kts 47°
2026-04-26 19:25 54.50554 -1.43676 123 ft 10 kts 350°
2026-04-26 19:26 54.50620 -1.43742 123 ft 12 kts 338°
2026-04-26 19:26 54.50708 -1.43773 126 ft 14 kts 357°
2026-04-26 19:26 54.50813 -1.43748 126 ft 17 kts 25°
2026-04-26 19:26 54.50912 -1.43621 126 ft 19 kts 44°
2026-04-26 19:27 54.50990 -1.43418 124 ft 22 kts 59°
2026-04-26 19:27 54.51039 -1.43277 122 ft 9 kts 59°
2026-04-26 19:27 54.51071 -1.43256 124 ft 6 kts 334°
2026-04-26 19:27 54.51112 -1.43293 124 ft 0 kts 331°
2026-04-26 19:28 54.51120 -1.43301 125 ft 0 kts 331°